Regional Weather Roundup
Issued by NWS Green Bay, WI

Home | Current Version | Previous Version | Graphics & Text | Print | Product List | Glossary Off
Versions: 1 2 3 4 5 6 7 8 9 10 11 12 13 14 15 16 17 18 19 20 21 22 23 24 25 26 27 28 29 30 31 32 33 34 35 36 37 38 39 40 41 42 43 44 45 46 47 48 49 50

000
ASUS43 KGRB 290159
RWRGRB

NORTH-CENTRAL AND NORTHEAST WISCONSIN REGIONAL WEATHER ROUNDUP
NATIONAL WEATHER SERVICE GREEN BAY WI
900 PM CDT THU AUG 28 2014

WIZ005-009-010>012-018-019-290300-
NORTH CENTRAL WISCONSIN

CITY           SKY/WX    TMP DP  RH WIND       PRES   REMARKS
IRONWOOD       NOT AVBL
MANITOWISH WTR NOT AVBL
ARBOR VITAE    NOT AVBL
EAGLE RIVER    NOT AVBL
LAND O LAKES   NOT AVBL
RHINELANDER    CLOUDY    63  59  87 S8        30.08R
PHILLIPS       NOT AVBL
ANTIGO         NOT AVBL
TOMAHAWK       NOT AVBL
MERRILL        NOT AVBL
$$

WIZ013-073-290300-
NORTHEAST WISCONSIN

CITY           SKY/WX    TMP DP  RH WIND       PRES   REMARKS
IRON MOUNTAIN  CLOUDY    62  56  80 SE8       30.08R
MARINETTE      CLOUDY    63  54  72 S6        30.08S
$$

WIZ017-030-035>037-045-290300-
CENTRAL WISCONSIN

CITY           SKY/WX    TMP DP  RH WIND       PRES   REMARKS
MEDFORD        NOT AVBL
WAUSAU         CLOUDY    64  61  90 SE8       30.05S
MOSINEE        CLOUDY    63  63 100 SE8       30.07S
MARSHFIELD     LGT RAIN  64  62  93 SE10      30.04F FOG
WISC RAPIDS    LGT RAIN  63  60  90 E7        30.06S
STEVENS POINT  NOT AVBL
WAUPACA        NOT AVBL
SHAWANO        DRIZZLE   64  58  83 S3        30.09R
CLINTONVILLE   NOT AVBL
$$

WIZ038-039-048-051-290300-
FOX VALLEY

CITY           SKY/WX    TMP DP  RH WIND       PRES   REMARKS
NWS GREEN BAY  CLOUDY    62  56  80 E5        30.08S
APPLETON       CLOUDY    63  55  77 VRB3      30.08F
OSHKOSH        CLOUDY    63  57  81 SE5       30.06F
FOND DU LAC    CLOUDY    63  54  72 CALM      30.07S
$$

WIZ022-050-052-290300-
EAST CENTRAL WISCONSIN

CITY           SKY/WX    TMP DP  RH WIND       PRES   REMARKS
STURGEON BAY   CLOUDY    61  54  77 SE5       30.10S
MANITOWOC      NOT AVBL
SHEBOYGAN      LGT RAIN  63  57  81 CALM      30.09S
$$

LMZ563-521-522-541>543-290300-
LAKESHORE

STATION/POSITION TIME  TEMP    WIND        PRES    VSBY  WAVE
                       AIR SEA DIR/SP/G                  HT/PER
                 (UTC) (F)     (DEG/KT/KT) (MB)    (MI)  (FT/S)
SHEBOYGAN LKSHOR 0100   66 68   80/  6/  7 1019.0F
KEWAUNEE LKSHORE 0100   64     130/  7/  8 1018.2R
ALGOMA MARINA    0100          170/  9/ 10   N/A
NORTHPORT PIER   0100   65     130/  9/ 11 1019.0S
N MID LAKE BUOY  0100   64 66  120/  6/  8 1019.5F         0
S GREEN BAY BUOY 0100   66     VRB  8/ 10  1019.5S
CHAMBERS ISLAND  0100   63     120/  3/  6 1019.3R
MENOMINEE LKSHOR 0100   65     160/  8/ 10 1019.4R
$$


USA.gov is the U.S. government's official web portal to all federal, state and local government web resources and services.